ONEWEB-0318, 49104

Orbit data source: Space-Track

ONEWEB-0318, 49104 is a payload satellite owned by One Web (NAA) (UK) in LEO that was launched on Sat, 21 Aug 2021 UTC via a SOYUZ-2-1B launch vehicle from the Tyuratam Missile And Space Complex (TTMTR). Payload-class satellites include a variety of spacecraft equipped with specific instruments for various scientific and technological missions. These include communications satellites like Starlink; space stations such as the ISS; scientific satellites like the Hubble; Earth observation satellites from companies like Planet Labs, Umbra, and HawkEye 360; GPS; miniature CubeSats for education and research; and military/defense satellites.

Loading next visibility...
Identifier
49104, 2021-075AF
Orbit
LEO
Country
Flag of UKUK
Related business
Manufacturer
One Web
Mission
Operational Commercial Communications
Bus & Motor
ARROW, Unknown motor
Mass
148 kg wet, ~140 kg dry
Launch date (UTC)
2021-08-21 (5 years ago)
Launch vehicle
SOYUZ-2-1B
Launch site
Tyuratam Missile And Space Complex (TTMTR)
Object type
Payload
Rocket body
Debris
Shape & HBR
Trap Box + 2 Pan, 6.7 m
Radar Cross Section
3.464 m², Large (>1 m²)

Expand to show TLE details & history
Last TLE update: 23 hours ago

TLE from 23 hours ago
0 ONEWEB-0318
1 49104U 21075AF  26175.13605123  .00002960  00000-0  74693-2 0  9993
2 49104  87.9217 334.0749 0000495  89.9230 270.1959 13.18717288238083
Epoch: 2026-06-24T03:15Z
TLE epoch observation values (Epoch: 2026-06-24T03:15:54.826Z)
Latitude
Longitude
12.79886°
Altitude
1,192.522 km
Speed
7.257 km/s
True Right ascension
22h 16m 17s
True Declination
0° 00' 00"
Sunlit
Object was in daylight at epoch
Visualization orbit readout
Latitude
Unknown
Longitude
Unknown
Altitude
Unknown
Speed
Unknown
Apparent Right ascension
Unknown
Apparent Declination
Unknown
Sunlit
N/A
Visualization observer readout
Local Sidereal Time
13:56:01
Azimuth
Unknown
Elevation
Unknown
Doppler factor
Unknown
Orbital elements
Apogee altitude
1,187.105 km
Perigee altitude
1,186.356 km
Semi-major axis
7,564.868 km
Eccentricity
0.00005
Inclination
87.9217°
RAAN
334.0749°
Arg. of periapsis
89.923°
True anomaly
270.19023°
Mean anomaly
270.1959°
Eccentric anomaly
270.19306°
Mean motion
3.29869 °/min
Orbital period
109.13 mins
BSTAR
0.0074693
Loading maneuver chart data...
Computing Atmospheric mass density...
Loading historical data...
Loading historical data...
Loading historical data...
Loading historical data...
Loading historical data...
Loading historical data...
Loading historical data...

Documentation

Showing up to 5 results
|